Regional Weather Roundup
Issued by NWS

Home | Current Version | Previous Version | Text Only | Print | Product List | Glossary Off
Versions: 1 2 3 4 5 6 7 8 9 10 11 12 13 14 15 16 17 18 19 20 21 22 23 24 25 26 27 28 29 30 31 32 33 34 35 36 37 38 39 40 41 42 43 44 45 46 47 48 49 50

000
ASUS43 KBIS 171220
RWRND

NORTH DAKOTA REGIONAL WEATHER ROUNDUP
NATIONAL WEATHER SERVICE BISMARCK ND
700 AM CDT THU APR 17 2014

NOTE: "FAIR" INDICATES FEW OR NO CLOUDS BELOW 12,000 FEET WITH NO
SIGNIFICANT WEATHER AND/OR OBSTRUCTIONS TO VISIBILITY.


NDZ001>003-009>011-017-171300-
NORTHWEST NORTH DAKOTA

CITY           SKY/WX    TMP DP  RH WIND       PRES   REMARKS
WILLISTON      CLOUDY    27  21  78 SE14      30.21F WCI  16
MINOT          CLOUDY    22  12  65 E6        30.31S WCI  14
MINOT AFB      CLOUDY    22  14  71 E8        30.31S WCI  12
$$

NDZ018>021-031>035-040>046-171300-
SOUTHWEST NORTH DAKOTA

CITY           SKY/WX    TMP DP  RH WIND       PRES   REMARKS
BISMARCK       CLOUDY    24  16  71 E7        30.32R WCI  16
6HR MIN TEMP:  24; 6HR MAX TEMP:  29;

DICKINSON      CLOUDY    27  17  66 SE15      30.17F WCI  15
GARRISON         N/A     23  14  68 E8        30.29R WCI  14
6HR MIN TEMP:  23; 6HR MAX TEMP:  27;

HETTINGER ARPT LGT SNOW  26  22  84 SE9       30.19S FOG     WCI  17
$$

NDZ004>008-012>016-024-026-027-054-171300-
NORTHEAST NORTH DAKOTA

CITY           SKY/WX    TMP DP  RH WIND       PRES   REMARKS
GRAND FORKS    CLEAR     21  17  84 NW8       30.35R WCI  11
GRND FRKS AFB  CLEAR     20  16  84 N8        30.35R WCI  11
DEVILS LAKE    CLEAR     18   9  68 N3        30.33R
$$

NDZ022-023-025-028>030-036>039-047>053-171300-
SOUTHEAST NORTH DAKOTA

CITY           SKY/WX    TMP DP  RH WIND       PRES   REMARKS
FARGO          CLEAR     20  16  84 N6        30.30R WCI  12
6HR MIN TEMP:  20; 6HR MAX TEMP:  29;

JAMESTOWN      CLEAR     18  15  88 N7        30.31R WCI   9
$$




USA.gov is the U.S. government's official web portal to all federal, state and local government web resources and services.